This is the latest recevied weather packets stored in our database for station/object N5PRN. If no packets are shown the sender has not sent any weather packets the latest 10 day(s).
| Time | Temp. | Humidity | Pressure | Rain* | Wind** | Luminosity | Snow |
|---|---|---|---|---|---|---|---|
| 1777500336 | 20° C | 95% | 1010.9 hPa | 3.05 mm | - | 47 W/m² | - |
| 1777500031 | 20° C | 95% | 1011.7 hPa | 3.05 mm | - | 46 W/m² | - |
| 1777499728 | 20° C | 95% | 1011.8 hPa | 4.32 mm | - | 29 W/m² | - |
| 1777499425 | 20° C | 95% | 1011.7 hPa | 4.83 mm | - | 23 W/m² | - |
| 1777499123 | 20° C | 95% | 1011.9 hPa | 15.49 mm | - | 52 W/m² | - |
| 1777498820 | 20° C | 95% | 1011.9 hPa | 30.73 mm | - | 63 W/m² | - |
| 1777498516 | 20° C | 95% | 1011.6 hPa | 35.31 mm | - | 64 W/m² | - |
| 1777498212 | 20° C | 95% | 1011.7 hPa | 27.69 mm | - | 21 W/m² | - |
| 1777497911 | 20° C | 94% | 1011.4 hPa | 18.54 mm | - | 36 W/m² | - |
| 1777497606 | 20.56° C | 94% | 1011.3 hPa | 19.81 mm | - | 16 W/m² | - |
| 1777497303 | 20.56° C | 94% | 1011.1 hPa | 11.94 mm | - | 16 W/m² | - |
| 1777496999 | 21.11° C | 94% | 1011.3 hPa | 0 mm | - | 6 W/m² | - |
| 1777496696 | 21.67° C | 94% | 1010.8 hPa | 1.27 mm | - | 2 W/m² | - |
| 1777496392 | 22.78° C | 94% | 1010.9 hPa | 1.27 mm | - | 1 W/m² | - |
| 1777496089 | 24.44° C | 94% | 1010.8 hPa | 0 mm | - | 32 W/m² | - |
| 1777495784 | 24.44° C | 93% | 1010.4 hPa | 0 mm | - | 37 W/m² | - |
| 1777495481 | 24.44° C | 93% | 1010.2 hPa | 0 mm | - | 52 W/m² | - |
| 1777495177 | 24.44° C | 93% | 1010.6 hPa | 0 mm | - | 68 W/m² | - |
| 1777494875 | 25° C | 92% | 1010.7 hPa | 0 mm | - | 44 W/m² | - |
| 1777494572 | 25° C | 92% | 1010.8 hPa | 1.78 mm | - | 35 W/m² | - |
| 1777494269 | 25° C | 91% | 1011 hPa | 6.6 mm | - | 25 W/m² | - |
| 1777493966 | 25.56° C | 90% | 1011 hPa | 6.6 mm | - | 49 W/m² | - |
| 1777493664 | 25.56° C | 90% | 1011.2 hPa | 0 mm | - | 47 W/m² | - |
| 1777493361 | 25.56° C | 89% | 1010.9 hPa | 0 mm | - | 26 W/m² | - |
| 1777493057 | 26.11° C | 89% | 1010.9 hPa | 0 mm | - | 23 W/m² | - |
* Rain latest hour (hover to see other rain measurements)
** Current wind speed in m/s (hover to see current wind gust speed)